Weather History for College Park, MD

Change the Weather History Date:

Tuesday, May 28, 2013

  Actual Average Record
Temperature  
Mean Temperature 70 °F -  
Max Temperature 83 °F 76 °F 94 °F (2012)
Min Temperature 58 °F 55 °F 40 °F (1961)
Cooling Degree Days 6    
Growing Degree Days 20 (Base 50)    
Moisture  
Dew Point 62 °F    
Average Humidity 82    
Maximum Humidity 100    
Minimum Humidity 55    
Precipitation  
Precipitation 0.00 in - - ()
Sea Level Pressure  
Sea Level Pressure 30.14 in    
Wind  
Wind Speed 1 mph (SSE)    
Max Wind Speed 7 mph    
Max Gust Speed -    
Visibility 9 miles    
Events      
Averages and records for this station are not official NWS values.
T = Trace of Precipitation, MM = Missing Value Source: NWS Daily Summary

Daily Weather History Graph

Daily Weather History Graph

Search for Another Location

Airport:

Trip Planner

Search our weather history database for the weather conditions in past years. The results will help you decide how hot, cold, wet, or windy it might be!

Date:

Astronomy

May. 28, 2013 Rise Set
Actual Time 5:45 AM EDT 8:24 PM EDT
Civil Twilight 5:14 AM EDT 8:55 PM EDT
Nautical Twilight 4:35 AM EDT 9:34 PM EDT
Astronomical Twilight 3:51 AM EDT 10:18 PM EDT
Moon 11:47 PM EDT (5/28) 9:30 AM EDT (5/28)
Length of Visible Light 15h 41m
Length of Day
14h 39m
Waning Gibbous, 83% of the Moon is Illuminated
May 28
Waning Gibbous
May 31
Last Quarter
Jun 8
New
Jun 16
First Quarter
Jun 23
Full

Hourly Weather History & Observations

Time (EDT) Temp. Heat Index Dew Point Humidity Pressure Visibility Wind Dir Wind Speed Gust Speed Precip Events Conditions
12:15 AM 59.4 °F - 53.6 °F 81% 30.21 in 10.0 mi Calm Calm - N/A   Clear
12:35 AM 59.0 °F - 53.6 °F 82% 30.20 in 10.0 mi Calm Calm - N/A   Scattered Clouds
12:55 AM 58.6 °F - 54.0 °F 84% 30.20 in 10.0 mi Calm Calm - N/A   Mostly Cloudy
1:15 AM 58.3 °F - 54.0 °F 86% 30.20 in 10.0 mi Calm Calm - N/A   Mostly Cloudy
1:35 AM 59.0 °F - 54.0 °F 83% 30.20 in 10.0 mi Calm Calm - N/A   Mostly Cloudy
1:55 AM 58.6 °F - 55.8 °F 90% 30.20 in 10.0 mi Calm Calm - N/A   Mostly Cloudy
2:15 AM 59.5 °F - 55.8 °F 87% 30.19 in 10.0 mi Calm Calm - N/A   Overcast
2:35 AM 59.9 °F - 56.1 °F 87% 30.19 in 10.0 mi Calm Calm - N/A   Overcast
2:55 AM 60.3 °F - 55.6 °F 85% 30.18 in 10.0 mi Calm Calm - N/A   Mostly Cloudy
3:15 AM 60.1 °F - 55.2 °F 84% 30.17 in 10.0 mi Calm Calm - N/A   Mostly Cloudy
3:35 AM 59.4 °F - 55.4 °F 87% 30.16 in 10.0 mi Calm Calm - N/A   Scattered Clouds
3:55 AM 59.4 °F - 55.0 °F 86% 30.16 in 10.0 mi Calm Calm - N/A   Scattered Clouds
4:15 AM 59.5 °F - 55.6 °F 87% 30.17 in 10.0 mi Calm Calm - N/A   Mostly Cloudy
4:35 AM 59.2 °F - 55.4 °F 87% 30.16 in 10.0 mi Calm Calm - N/A   Mostly Cloudy
4:55 AM 59.0 °F - 55.9 °F 90% 30.16 in 10.0 mi Calm Calm - N/A   Mostly Cloudy
5:15 AM 59.9 °F - 55.9 °F 87% 30.17 in 10.0 mi Calm Calm - N/A   Overcast
5:35 AM 59.0 °F - 57.4 °F 94% 30.17 in 7.0 mi North 4.6 mph - N/A   Overcast
5:55 AM 59.0 °F - 57.6 °F 95% 30.17 in 10.0 mi NNE 3.5 mph - N/A   Overcast
6:15 AM 59.4 °F - 57.7 °F 94% 30.17 in 10.0 mi Calm Calm - N/A   Overcast
6:35 AM 59.0 °F - 58.5 °F 98% 30.17 in 10.0 mi Calm Calm - N/A   Mostly Cloudy
6:55 AM 59.9 °F - 59.0 °F 97% 30.17 in 10.0 mi Calm Calm - N/A   Scattered Clouds
7:15 AM 60.4 °F - 59.9 °F 98% 30.17 in 10.0 mi Calm Calm - N/A   Mostly Cloudy
7:35 AM 61.7 °F - 61.0 °F 97% 30.17 in 10.0 mi Calm Calm - N/A   Overcast
7:55 AM 63.0 °F - 61.9 °F 96% 30.16 in 10.0 mi SSE 3.5 mph - N/A   Overcast
8:15 AM 64.8 °F - 59.7 °F 84% 30.16 in 10.0 mi SSE 3.5 mph - N/A   Overcast
8:35 AM 65.3 °F - 59.4 °F 81% 30.16 in 10.0 mi South 4.6 mph - N/A   Overcast
8:55 AM 66.2 °F - 59.0 °F 78% 30.17 in 10.0 mi South 5.8 mph - N/A   Overcast
9:15 AM 65.8 °F - 59.2 °F 79% 30.18 in 10.0 mi Calm Calm - N/A   Overcast
9:35 AM 66.2 °F - 59.2 °F 78% 30.17 in 10.0 mi South 5.8 mph - N/A   Mostly Cloudy
9:55 AM 66.4 °F - 59.5 °F 79% 30.16 in 10.0 mi South 6.9 mph - N/A   Mostly Cloudy
10:15 AM 67.1 °F - 59.5 °F 77% 30.17 in 10.0 mi SSW 3.5 mph - N/A   Scattered Clouds
10:35 AM 67.1 °F - 60.1 °F 78% 30.18 in 10.0 mi Calm Calm - N/A   Mostly Cloudy
10:55 AM 68.7 °F - 60.1 °F 74% 30.18 in 10.0 mi West 3.5 mph - N/A   Mostly Cloudy
11:15 AM 70.0 °F - 59.4 °F 69% 30.17 in 10.0 mi Calm Calm - N/A   Scattered Clouds
11:35 AM 71.6 °F - 59.7 °F 66% 30.16 in 10.0 mi SE 3.5 mph - N/A   Clear
11:50 AM 72.3 °F - 59.7 °F 64% 30.16 in 10.0 mi SE 3.5 mph - N/A   Scattered Clouds
12:15 PM 74.5 °F - 60.8 °F 62% 30.15 in 10.0 mi SSW 3.5 mph - N/A   Scattered Clouds
12:35 PM 75.2 °F - 60.4 °F 60% 30.15 in 10.0 mi South 5.8 mph - N/A   Clear
12:55 PM 76.3 °F - 61.5 °F 60% 30.13 in 10.0 mi SSW 3.5 mph - N/A   Scattered Clouds
1:15 PM 77.2 °F - 62.1 °F 59% 30.13 in 10.0 mi South 3.5 mph - N/A   Mostly Cloudy
1:35 PM 77.0 °F - 62.1 °F 60% 30.13 in 10.0 mi SW 4.6 mph - N/A   Mostly Cloudy
1:55 PM 77.0 °F - 62.8 °F 61% 30.13 in 10.0 mi SSW 3.5 mph - N/A   Overcast
2:15 PM 77.2 °F - 63.3 °F 62% 30.13 in 10.0 mi Calm Calm - N/A   Overcast
2:35 PM 78.1 °F - 64.8 °F 63% 30.12 in 10.0 mi Calm Calm - N/A   Mostly Cloudy
2:55 PM 77.7 °F - 65.7 °F 66% 30.12 in 10.0 mi NE 3.5 mph - N/A   Scattered Clouds
3:15 PM 81.0 °F 83.0 °F 65.7 °F 60% 30.11 in 10.0 mi SSE 4.6 mph - N/A   Clear
3:35 PM 83.1 °F 85.4 °F 66.2 °F 57% 30.10 in 10.0 mi Calm Calm - N/A   Clear
3:55 PM 83.1 °F 85.0 °F 65.7 °F 55% 30.09 in 10.0 mi SE 5.8 mph - N/A   Scattered Clouds
4:15 PM 81.7 °F 84.3 °F 67.5 °F 62% 30.09 in 10.0 mi East 5.8 mph - N/A   Mostly Cloudy
4:35 PM 81.3 °F 84.1 °F 68.0 °F 64% 30.09 in 10.0 mi East 5.8 mph - N/A   Mostly Cloudy
6:35 PM 79.0 °F - 69.3 °F 72% 30.08 in 10.0 mi Calm Calm - N/A   Overcast
7:35 PM 74.7 °F - 73.8 °F 97% 30.09 in 10.0 mi SW 3.5 mph - N/A   Mostly Cloudy
7:55 PM 73.4 °F - 70.5 °F 91% 30.08 in 1.5 mi Calm Calm - N/A   Mostly Cloudy
8:15 PM 72.5 °F - 72.0 °F 98% 30.08 in 7.0 mi Calm Calm - N/A   Scattered Clouds
8:35 PM 72.1 °F - 70.7 °F 95% 30.08 in 7.0 mi Calm Calm - N/A   Mostly Cloudy
8:55 PM 71.8 °F - 69.6 °F 93% 30.08 in 10.0 mi Calm Calm - N/A   Scattered Clouds
9:15 PM 70.9 °F - 70.0 °F 97% 30.08 in 10.0 mi SSE 3.5 mph - N/A   Scattered Clouds
9:35 PM 70.3 °F - 69.8 °F 98% 30.09 in 10.0 mi Calm Calm - N/A   Overcast
9:55 PM 69.8 °F - 69.6 °F 99% 30.09 in 10.0 mi Calm Calm - N/A   Mostly Cloudy
10:15 PM 68.9 °F - 68.9 °F 100% 30.09 in 10.0 mi Calm Calm - N/A   Scattered Clouds
10:35 PM 68.0 °F - 68.0 °F 100% 30.09 in 10.0 mi Calm Calm - N/A   Clear
10:55 PM 67.5 °F - 67.5 °F 100% 30.09 in 5.0 mi Calm Calm - N/A   Clear
11:15 PM 66.6 °F - 66.6 °F 100% 30.09 in 1.5 mi Calm Calm - N/A   Unknown
11:35 PM 66.7 °F - 66.7 °F 100% 30.09 in 4.0 mi ESE 3.5 mph - N/A   Clear
11:55 PM 67.1 °F - 67.1 °F 100% 30.09 in 7.0 mi Calm Calm - N/A   Clear